Flag for U.S.A. Weather past 2 weeks in Laredo, Texas, U.S.A.

Now
88 °F

Scattered clouds.


Feels Like: 95 °F
Forecast: 76 / 88 °F
Wind: 8 mph from East

Location: Laredo International Airport

Current Time: May 30, 2015 at 4:00:42 PM

Latest Report: May 30, 2015 at 2:56 PM


Visibility: 10 mi

Pressure: 29.97 "Hg

Humidity: 59%

Dew point: 72 °F

Location of LaredoLocation

Historic Weather in Laredo — Graph

°F

Laredo temperature yesterday

Maximum temperature yesterday: 90 °F (at 4:56 PM)
Minimum temperature yesterday: 64 °F (at 4:01 AM)
Average temperature yesterday: 79 °F

Past Weeks' High & Low Weather Summary

 TemperatureHumidityPressure
High94 °F (May 16, 3:56 PM)100% (May 29, 5:04 AM)30.06 "Hg (May 29, 5:04 AM)
Low64 °F (May 29, 4:01 AM)44% (May 19, 3:56 PM)29.70 "Hg (May 16, 5:56 PM)
Average81 °F75%29.89 "Hg
* Reported May 15 2:56 PM — May 30 2:56 PM, Laredo, Weather by CustomWeather, © 2015

Note: Actual official high and low records may vary slightly from our data, if they occured in-between our weather recording intervals... More about our weather records

Advertising

Laredo weather history for previous 24 hours

 ConditionsComfort  
Time TempWeatherWind HumidityBarometerVisibility
2:56 PM
Sat, May 30
88 °FScattered clouds.8 mph59%29.97 "Hg10 mi
1:56 PM87 °FPassing clouds.6 mph59%29.98 "Hg10 mi
12:56 PM86 °FPassing clouds.12 mph61%29.99 "Hg10 mi
11:56 AM84 °FSunny.7 mph65%29.99 "Hg10 mi
10:56 AM82 °FScattered clouds.5 mph72%30.00 "Hg10 mi
9:56 AM79 °FOvercast.6 mph79%30.01 "Hg10 mi
8:56 AM77 °FOvercast.9 mph85%29.98 "Hg10 mi
7:56 AM75 °FPartly sunny.8 mph94%29.95 "Hg10 mi
6:56 AM74 °FPassing clouds.7 mph97%29.93 "Hg9 mi
5:56 AM74 °FClear.9 mph97%29.92 "Hg10 mi
4:56 AM75 °FClear.3 mph94%29.92 "Hg10 mi
3:56 AM76 °FClear.8 mph90%29.91 "Hg10 mi
2:56 AM76 °FPassing clouds.9 mph90%29.92 "Hg10 mi
1:56 AM77 °FClear.8 mph85%29.93 "Hg10 mi
12:56 AM77 °FClear.7 mph85%29.93 "Hg10 mi
11:56 PM
Fri, May 29
78 °FClear.10 mph82%29.93 "Hg10 mi
10:56 PM80 °FClear.9 mph77%29.92 "Hg10 mi
9:56 PM81 °FClear.9 mph74%29.90 "Hg10 mi
8:56 PM83 °FSunny.3 mph67%29.88 "Hg10 mi
7:56 PM86 °FSunny.10 mph59%29.87 "Hg10 mi
6:56 PM87 °FSunny.15 mph55%29.85 "Hg10 mi
5:56 PM89 °FPassing clouds.13 mph54%29.86 "Hg10 mi
4:56 PM90 °FPassing clouds.14 mph52%29.87 "Hg10 mi
Weather by CustomWeather, © 2015

See weather overviewHow to use our weather pages